Location: Ostrava
(49.8330°N, 18.2830°E)
Time: 13:05:17
(UTC+02:00)

Cosmos 2219 Rocket - Visible Passes

Search period start: 30 May 2017 00:00
Search period end: 09 June 2017 00:00
Orbit: 827 x 848 km, 71.0° (Epoch: 29 May)

Date Brightness Start Highest point End Pass type
(mag) Time Alt. Az. Time Alt. Az. Time Alt. Az.
30 May 2.2 01:20:48 10° NNW 01:26:30 72° WSW 01:29:39 27° SSE visible
30 May 4.1 03:07:11 10° WNW 03:09:25 12° W 03:11:20 11° WSW visible
30 May 4.0 23:20:51 10° NNW 23:25:35 26° NE 23:30:17 10° E visible
31 May 2.2 01:04:26 10° NNW 01:10:09 76° WSW 01:13:14 28° SSE visible
31 May 4.0 02:50:30 10° WNW 02:53:08 13° W 02:54:56 12° WSW visible
31 May 4.0 23:04:31 10° NNW 23:09:10 25° NE 23:13:47 10° E visible
01 Jun 2.1 00:48:05 10° NNW 00:53:49 81° WSW 00:56:52 29° SSE visible
01 Jun 4.0 02:33:53 10° WNW 02:36:51 15° W 02:38:34 13° WSW visible
01 Jun 4.1 22:48:12 10° NNW 22:52:45 24° NE 22:57:16 10° E visible
02 Jun 2.1 00:31:43 10° NNW 00:37:28 86° WSW 00:40:33 28° SSE visible
02 Jun 3.9 02:17:19 10° WNW 02:20:33 16° W 02:22:16 14° WSW visible
02 Jun 4.1 22:31:54 10° NNW 22:36:20 23° NE 22:40:45 10° E visible
03 Jun 2.2 00:15:22 10° NNW 00:21:06 89° NE 00:24:18 28° SSE visible
03 Jun 3.9 02:00:46 10° WNW 02:04:16 17° W 02:05:59 15° WSW visible
03 Jun 4.1 22:15:34 10° N 22:19:55 22° NE 22:24:14 10° E visible
03 Jun 2.2 23:59:01 10° NNW 00:04:45 84° ENE 00:08:04 26° SSE visible
04 Jun 3.8 01:44:14 10° WNW 01:47:58 18° W 01:49:46 16° WSW visible
04 Jun 4.2 21:59:15 10° N 22:03:29 21° NE 22:07:42 10° E visible
04 Jun 2.2 23:42:39 10° NNW 23:48:23 80° ENE 23:51:53 25° SE visible
05 Jun 3.8 01:27:45 10° NW 01:31:40 19° W 01:33:34 17° SW visible
05 Jun 4.2 21:42:56 10° N 21:47:04 20° NE 21:51:09 10° E visible
05 Jun 2.3 23:26:18 10° NNW 23:32:02 75° ENE 23:35:43 23° SE visible
06 Jun 3.7 01:11:16 10° NW 01:15:23 21° W 01:17:25 17° SW visible
06 Jun 4.2 21:26:38 10° N 21:30:38 19° NE 21:34:37 10° E visible
06 Jun 2.4 23:09:57 10° NNW 23:15:40 71° ENE 23:19:35 21° SE visible
07 Jun 3.7 00:54:47 10° NW 00:59:04 22° W 01:01:18 18° SW visible
07 Jun 2.4 22:53:36 10° NNW 22:59:18 66° ENE 23:03:30 18° SE visible
08 Jun 3.7 00:38:19 10° NW 00:42:46 24° WSW 00:45:12 18° SW visible
08 Jun 2.5 22:37:15 10° NNW 22:42:56 62° ENE 22:47:26 16° SE visible
